• In Germany
  • List of Countries
  • For 7 days
  • Water Temperature
  • Satellite Maps
  • Weather Map
  • Weather Widgets
  • user-avatar
    Login

    Hourly Weather Rossoshino

    Today, 22 July, Sunday

    Time Temperature Precipitation Wind Pressure Humidity
    00:00 +18°C° 0.5 mm 1 mps 683 mmHg 97%
    01:00 +18°C° 0.5 mm 1 mps 683 mmHg 97%
    02:00 +18°C° 0 mm 1 mps 683 mmHg 98%
    03:00 +18°C° 0.4 mm 1 mps 683 mmHg 97%
    04:00 +16°C° 0.4 mm 2 mps 683 mmHg 97%
    05:00 +16°C° 0.4 mm 2 mps 684 mmHg 96%
    06:00 +17°C° 0.3 mm 2 mps 684 mmHg 93%
    07:00 +17°C° 0.3 mm 3 mps 685 mmHg 90%
    08:00 +18°C° 0 mm 2 mps 686 mmHg 84%
    09:00 +19°C° 0 mm 3 mps 686 mmHg 75%
    10:00 +21°C° 0 mm 4 mps 687 mmHg 65%
    11:00 +22°C° 0 mm 4 mps 687 mmHg 56%
    12:00 +22°C° 0 mm 4 mps 688 mmHg 53%
    13:00 +23°C° 0 mm 4 mps 688 mmHg 51%
    14:00 +25°C° 0 mm 4 mps 689 mmHg 48%
    15:00 +23°C° 0.1 mm 4 mps 689 mmHg 52%
    16:00 +22°C° 0.1 mm 3 mps 689 mmHg 55%
    17:00 +22°C° 0.1 mm 3 mps 690 mmHg 59%
    18:00 +20°C° 0 mm 3 mps 690 mmHg 65%
    19:00 +18°C° 0 mm 2 mps 690 mmHg 71%
    20:00 +18°C° 0 mm 1 mps 690 mmHg 77%
    21:00 +15°C° 0 mm 1 mps 690 mmHg 78%
    22:00 +14°C° 0 mm 1 mps 691 mmHg 80%
    23:00 +12°C° 0 mm 1 mps 691 mmHg 82%

    Tomorrow, 23 July, Monday

    Time Temperature Precipitation Wind Pressure Humidity
    00:00 +11°C° 0 mm 1 mps 691 mmHg 83%
    01:00 +11°C° 0 mm 1 mps 691 mmHg 84%
    02:00 +10°C° 0 mm 1 mps 691 mmHg 86%
    03:00 +9°C° 0 mm 1 mps 692 mmHg 86%
    04:00 +9°C° 0 mm 1 mps 692 mmHg 87%
    05:00 +9°C° 0 mm 1 mps 692 mmHg 87%
    06:00 +10°C° 0 mm 0 mps 692 mmHg 79%
    07:00 +13°C° 0 mm 0 mps 693 mmHg 70%
    08:00 +16°C° 0 mm 0 mps 693 mmHg 62%
    09:00 +18°C° 0 mm 0 mps 693 mmHg 56%
    10:00 +21°C° 0 mm 1 mps 693 mmHg 51%
    11:00 +23°C° 0 mm 1 mps 693 mmHg 45%
    12:00 +24°C° 0 mm 1 mps 693 mmHg 44%
    13:00 +25°C° 0 mm 2 mps 693 mmHg 42%
    14:00 +25°C° 0 mm 2 mps 693 mmHg 40%
    15:00 +25°C° 0 mm 2 mps 693 mmHg 43%
    16:00 +25°C° 0 mm 2 mps 692 mmHg 46%
    17:00 +25°C° 0 mm 2 mps 692 mmHg 49%
    18:00 +24°C° 0 mm 2 mps 692 mmHg 57%
    19:00 +22°C° 0 mm 1 mps 692 mmHg 66%
    20:00 +20°C° 0 mm 1 mps 692 mmHg 74%
    21:00 +19°C° 0 mm 1 mps 692 mmHg 77%
    22:00 +16°C° 0 mm 1 mps 692 mmHg 80%
    23:00 +15°C° 0 mm 1 mps 692 mmHg 84%

    Day after tomorrow, 24 July, Tuesday

    Time Temperature Precipitation Wind Pressure Humidity
    00:00 +14°C° 0 mm 1 mps 692 mmHg 85%
    01:00 +14°C° 0 mm 1 mps 691 mmHg 87%
    02:00 +13°C° 0 mm 1 mps 691 mmHg 88%
    03:00 +12°C° 0 mm 0 mps 691 mmHg 89%
    04:00 +12°C° 0 mm 0 mps 691 mmHg 89%
    05:00 +11°C° 0 mm 0 mps 691 mmHg 90%
    06:00 +14°C° 0 mm 0 mps 692 mmHg 82%
    07:00 +16°C° 0 mm 0 mps 692 mmHg 75%
    08:00 +18°C° 0 mm 0 mps 692 mmHg 67%
    09:00 +20°C° 0 mm 0 mps 692 mmHg 62%
    10:00 +24°C° 0 mm 1 mps 692 mmHg 57%
    11:00 +26°C° 0 mm 1 mps 693 mmHg 52%
    12:00 +27°C° 0.2 mm 1 mps 692 mmHg 50%
    13:00 +28°C° 0.2 mm 1 mps 692 mmHg 48%
    14:00 +29°C° 0.2 mm 1 mps 692 mmHg 45%
    15:00 +26°C° 0 mm 0 mps 692 mmHg 47%
    16:00 +26°C° 0 mm 0 mps 692 mmHg 49%
    17:00 +25°C° 0 mm 0 mps 691 mmHg 51%
    18:00 +25°C° 0 mm 1 mps 691 mmHg 59%
    19:00 +23°C° 0 mm 1 mps 691 mmHg 67%
    20:00 +21°C° 0 mm 1 mps 691 mmHg 75%
    21:00 +20°C° 0 mm 1 mps 691 mmHg 79%
    22:00 +19°C° 0 mm 1 mps 691 mmHg 84%
    23:00 +16°C° 0 mm 1 mps 691 mmHg 88%

    25 July, Wednesday

    Time Temperature Precipitation Wind Pressure Humidity
    00:00 +16°C° 0 mm 1 mps 691 mmHg 90%
    01:00 +15°C° 0 mm 1 mps 691 mmHg 91%
    02:00 +15°C° 0 mm 1 mps 691 mmHg 93%
    03:00 +15°C° 0 mm 1 mps 691 mmHg 94%
    04:00 +13°C° 0 mm 0 mps 691 mmHg 94%
    05:00 +13°C° 0 mm 0 mps 691 mmHg 95%
    06:00 +18°C° 0 mm 1 mps 691 mmHg 88%
    07:00 +20°C° 0 mm 1 mps 692 mmHg 81%
    08:00 +22°C° 0 mm 1 mps 692 mmHg 74%
    09:00 +24°C° 0 mm 1 mps 692 mmHg 68%
    10:00 +26°C° 0 mm 1 mps 692 mmHg 63%
    11:00 +27°C° 0 mm 2 mps 692 mmHg 58%
    12:00 +27°C° 0.4 mm 2 mps 692 mmHg 59%
    13:00 +27°C° 0.4 mm 2 mps 691 mmHg 61%
    14:00 +28°C° 0.4 mm 3 mps 691 mmHg 62%
    15:00 +27°C° 0.6 mm 3 mps 691 mmHg 64%
    16:00 +27°C° 0.6 mm 3 mps 691 mmHg 66%
    17:00 +27°C° 0.6 mm 3 mps 691 mmHg 68%
    18:00 +25°C° 0.4 mm 2 mps 691 mmHg 75%
    19:00 +24°C° 0.4 mm 2 mps 690 mmHg 81%
    20:00 +22°C° 0.4 mm 1 mps 690 mmHg 87%
    21:00 +21°C° 0.3 mm 1 mps 691 mmHg 90%
    22:00 +20°C° 0.3 mm 1 mps 691 mmHg 92%
    23:00 +19°C° 0.3 mm 1 mps 691 mmHg 95%

    26 July, Thursday

    Time Temperature Precipitation Wind Pressure Humidity
    00:00 +19°C° 0 mm 1 mps 691 mmHg 96%
    01:00 +18°C° 0 mm 1 mps 690 mmHg 96%
    02:00 +18°C° 0 mm 1 mps 690 mmHg 97%
    03:00 +16°C° 0 mm 1 mps 690 mmHg 97%
    04:00 +16°C° 0 mm 1 mps 690 mmHg 97%
    05:00 +16°C° 0 mm 1 mps 690 mmHg 98%
    06:00 +19°C° 0 mm 1 mps 690 mmHg 91%
    07:00 +19°C° 0 mm 2 mps 690 mmHg 85%
    08:00 +21°C° 0 mm 2 mps 691 mmHg 79%
    09:00 +24°C° 0 mm 3 mps 690 mmHg 71%
    10:00 +26°C° 0 mm 3 mps 690 mmHg 62%
    11:00 +27°C° 0 mm 4 mps 690 mmHg 54%
    12:00 +28°C° 0 mm 4 mps 690 mmHg 54%
    13:00 +28°C° 0 mm 4 mps 689 mmHg 54%
    14:00 +29°C° 0 mm 4 mps 689 mmHg 54%
    15:00 +27°C° 1.4 mm 4 mps 689 mmHg 66%
    16:00 +25°C° 1.4 mm 3 mps 688 mmHg 78%
    17:00 +23°C° 1.4 mm 2 mps 688 mmHg 90%
    18:00 +23°C° 2.4 mm 2 mps 688 mmHg 90%
    19:00 +21°C° 2.4 mm 2 mps 688 mmHg 91%
    20:00 +20°C° 2.4 mm 2 mps 688 mmHg 92%
    21:00 +21°C° 0.4 mm 1 mps 688 mmHg 93%
    22:00 +20°C° 0.4 mm 1 mps 688 mmHg 94%
    23:00 +19°C° 0.4 mm 1 mps 688 mmHg 96%

    27 July, Friday

    Time Temperature Precipitation Wind Pressure Humidity
    00:00 +18°C° 0 mm 1 mps 688 mmHg 96%
    01:00 +18°C° 0 mm 1 mps 688 mmHg 96%
    02:00 +18°C° 0 mm 1 mps 688 mmHg 97%
    03:00 +16°C° 0 mm 1 mps 689 mmHg 97%
    04:00 +16°C° 0 mm 1 mps 689 mmHg 97%
    05:00 +16°C° 0 mm 1 mps 689 mmHg 97%
    06:00 +16°C° 0 mm 0 mps 689 mmHg 93%
    07:00 +18°C° 0 mm 0 mps 689 mmHg 90%
    08:00 +20°C° 0 mm 0 mps 690 mmHg 87%
    09:00 +20°C° 0.3 mm 0 mps 690 mmHg 83%
    10:00 +23°C° 0.3 mm 1 mps 690 mmHg 80%
    11:00 +24°C° 0.3 mm 1 mps 690 mmHg 77%
    12:00 +23°C° 1.1 mm 2 mps 690 mmHg 81%
    13:00 +21°C° 1.1 mm 2 mps 690 mmHg 86%
    14:00 +20°C° 1.1 mm 3 mps 690 mmHg 90%
    15:00 +21°C° 0.3 mm 3 mps 691 mmHg 83%
    16:00 +21°C° 0.3 mm 3 mps 691 mmHg 75%
    17:00 +22°C° 0.3 mm 4 mps 691 mmHg 68%
    18:00 +20°C° 0 mm 3 mps 692 mmHg 70%
    19:00 +19°C° 0 mm 3 mps 692 mmHg 72%
    20:00 +17°C° 0 mm 2 mps 692 mmHg 74%
    21:00 +16°C° 0 mm 2 mps 692 mmHg 76%
    22:00 +14°C° 0 mm 2 mps 692 mmHg 78%
    23:00 +12°C° 0 mm 1 mps 692 mmHg 80%
    Show more